Weather History for KORH - April, 2013

Change the Weather History Date:

Monday, April 29, 2013

  Actual Average Record
Temperature  
Mean Temperature 55 °F 51 °F  
Max Temperature 65 °F 61 °F 84 °F (1901)
Min Temperature 45 °F 42 °F 28 °F (1939)
Degree Days  
Heating Degree Days 10 14  
Month to date heating degree days 554 557  
Since 1 July heating degree days 5955 6333  
Cooling Degree Days 0 0  
Month to date cooling degree days 0 0  
Year to date cooling degree days 0 0  
Growing Degree Days 5 (Base 50)    
Moisture  
Dew Point 33 °F    
Average Humidity 52    
Maximum Humidity 77    
Minimum Humidity 27    
Precipitation  
Precipitation T in 0.13 in 1.85 in (1923)
Month to date precipitation 1.80 3.98  
Year to date precipitation 12.36 14.91  
Snow  
Snow 0.00 in 0.10 in 2.00 in (1987)
Month to date snowfall 0.0 2.8  
Since 1 July snowfall 108.9 64.1  
Snow Depth -    
Sea Level Pressure  
Sea Level Pressure 30.25 in    
Wind  
Wind Speed 10 mph (SW)    
Max Wind Speed 20 mph    
Max Gust Speed 23 mph    
Visibility 10 miles    
Events      
T = Trace of Precipitation, MM = Missing Value Source: NWS Daily Summary

Daily Weather History Graph

Daily Weather History Graph

Search for Another Location

Airport or City:

Trip Planner

Search our weather history database for the weather conditions in past years. The results will help you decide how hot, cold, wet, or windy it might be!

Date:

Astronomy

Apr. 29, 2013 Rise Set
Actual Time 5:45 AM EDT 7:44 PM EDT
Civil Twilight 5:14 AM EDT 8:15 PM EDT
Nautical Twilight 4:37 AM EDT 8:52 PM EDT
Astronomical Twilight 3:57 AM EDT 9:33 PM EDT
Moon No Moon Rise 9:00 AM EDT
Length of Visible Light 15h 00m
Length of Day
13h 59m
Waning Gibbous, 80% of the Moon is Illuminated
Apr 29
Waning Gibbous
May 2
Last Quarter
May 9
New
May 18
First Quarter
May 25
Full

Hourly Weather History & Observations

Time (EDT) Temp. Windchill Dew Point Humidity Pressure Visibility Wind Dir Wind Speed Gust Speed Precip Events Conditions
12:54 AM 46.9 °F - 32.0 °F 56% 30.27 in 10.0 mi SW 12.7 mph - N/A   Clear
1:54 AM 46.9 °F - 35.1 °F 63% 30.25 in 10.0 mi SW 10.4 mph - N/A   Clear
2:54 AM 46.9 °F - 37.9 °F 71% 30.23 in 10.0 mi SW 9.2 mph - N/A   Clear
3:54 AM 46.0 °F 41.4 °F 39.9 °F 79% 30.23 in 10.0 mi WSW 9.2 mph - N/A   Clear
4:54 AM 46.0 °F 41.0 °F 39.9 °F 79% 30.24 in 10.0 mi WSW 10.4 mph - N/A   Clear
5:54 AM 46.0 °F 41.9 °F 39.9 °F 79% 30.25 in 10.0 mi WSW 8.1 mph - N/A   Clear
6:54 AM 48.0 °F - 41.0 °F 77% 30.26 in 10.0 mi WSW 8.1 mph - N/A   Clear
7:54 AM 50.0 °F - 42.1 °F 74% 30.28 in 10.0 mi WSW 8.1 mph - N/A   Clear
8:54 AM 53.1 °F - 42.1 °F 66% 30.28 in 10.0 mi SSW 8.1 mph - N/A   Clear
9:54 AM 54.0 °F - 41.0 °F 62% 30.27 in 10.0 mi SW 4.6 mph - N/A   Clear
10:54 AM 57.0 °F - 39.9 °F 53% 30.27 in 10.0 mi SSW 5.8 mph - N/A   Clear
11:54 AM 61.0 °F - 37.0 °F 41% 30.25 in 10.0 mi SSE 15.0 mph 21.9 mph N/A   Clear
12:54 PM 61.0 °F - 33.1 °F 35% 30.24 in 10.0 mi SW 11.5 mph - N/A   Clear
1:54 PM 64.0 °F - 36.0 °F 35% 30.22 in 10.0 mi South 9.2 mph 19.6 mph N/A   Partly Cloudy
2:54 PM 63.0 °F - 35.1 °F 35% 30.21 in 10.0 mi WSW 13.8 mph - N/A   Mostly Cloudy
3:54 PM 62.1 °F - 32.0 °F 32% 30.22 in 10.0 mi SSW 13.8 mph - N/A   Overcast
4:54 PM 60.1 °F - 27.0 °F 28% 30.22 in 10.0 mi SW 15.0 mph - N/A   Overcast
5:54 PM 57.9 °F - 24.1 °F 27% 30.23 in 10.0 mi SW 13.8 mph - 0.00 in   Overcast
6:54 PM 57.0 °F - 24.1 °F 28% 30.24 in 10.0 mi SW 9.2 mph - N/A   Overcast
7:54 PM 54.0 °F - 21.0 °F 28% 30.24 in 10.0 mi SSW 9.2 mph - N/A   Overcast
8:54 PM 53.1 °F - 21.9 °F 30% 30.26 in 10.0 mi SW 8.1 mph - N/A   Overcast
9:54 PM 52.0 °F - 25.0 °F 35% 30.27 in 10.0 mi SSW 6.9 mph - N/A   Overcast
10:54 PM 52.0 °F - 25.0 °F 35% 30.27 in 10.0 mi SW 8.1 mph - N/A   Overcast
11:54 PM 51.1 °F - 23.0 °F 33% 30.27 in 10.0 mi SW 6.9 mph - N/A   Overcast